{"data":{"norad_id":65736,"epoch":"2026-05-24T20:12:44.833248Z","epoch_age_seconds":81829,"freshness":"FRESH","line1":"1 65736U 25216C   26144.84218557  .00010180  00000+0  35531-3 0  9999","line2":"2 65736  53.1589 339.1157 0000810  54.6873 305.4203 15.30204625 38209","mean_motion":15.30204625,"eccentricity":8.1e-5,"inclination_deg":53.1589,"raan_deg":339.1157,"arg_perigee_deg":54.6873,"mean_anomaly_deg":305.4203,"bstar":0.00035531,"rev_number":3820,"period_min":94.10506127571,"perigee_km":474.6461396387,"apogee_km":475.75638043683,"semimajor_km":6853.3382600378,"source":"CELESTRAK","updated_at":"2026-05-25T13:38:20.900358Z"}}